,,Stat5,,Stat1,,Stat2,,Stat3,,Stat4,,Wind1,,Wind1,
time,status,PA1M_AVG,status,PR1M_SUM,status,RH1M_AVG,status,SR1M_AVG,status,TA1M_AVG,status,W1dAve1m,status,W1sAve1m,
2000-09-13, 00:00:00,VALID,917.806,VALID,0,VALID,96.2477,VALID,0,VALID,20.8357,VALID,82,VALID,0.701225,
2000-09-13, 00:01:01,VALID,917.798,VALID,0,VALID,96.277,VALID,0,VALID,20.8195,VALID,75,VALID,0.735008,
2000-09-13, 00:02:01,VALID,917.787,VALID,0,VALID,96.3113,VALID,0,VALID,20.8036,VALID,81,VALID,0.618796,
2000-09-13, 00:03:01,VALID,917.756,VALID,0,VALID,96.4067,VALID,-0.0169808,VALID,20.7711,VALID,96,VALID,0.467516,
2000-09-13, 00:04:01,VALID,917.751,VALID,0,VALID,96.5275,VALID,0.0169808,VALID,20.7646,VALID,92,VALID,0.267795,
2000-09-13, 00:05:01,VALID,917.731,VALID,0,VALID,96.6458,VALID,0,VALID,20.7748,VALID,87,VALID,0,
2000-09-13, 00:06:01,VALID,917.726,VALID,0,VALID,96.6928,VALID,0.0169808,VALID,20.7708,VALID,14,VALID,0,
2000-09-13, 00:07:01,VALID,917.708,VALID,0,VALID,96.7271,VALID,0.0169808,VALID,20.7778,VALID,335,VALID,0,
2000-09-13, 00:08:01,VALID,917.717,VALID,0,VALID,96.7805,VALID,0,VALID,20.7869,VALID,72,VALID,0,
2000-09-13, 00:09:01,VALID,917.692,VALID,0,VALID,96.8327,VALID,0,VALID,20.8069,VALID,88,VALID,0.00570101,
2000-09-13, 00:10:01,VALID,917.68,VALID,0,VALID,96.7767,VALID,0.0169808,VALID,20.82,VALID,105,VALID,0.533454,
2000-09-13, 00:11:01,VALID,917.657,VALID,0,VALID,96.7513,VALID,0.0169808,VALID,20.8168,VALID,97,VALID,0.758482,
2000-09-13, 00:12:01,VALID,917.628,VALID,0,VALID,96.7106,VALID,-0.0169808,VALID,20.8392,VALID,92,VALID,0.878689,
2000-09-13, 00:13:01,VALID,917.612,VALID,0,VALID,96.6737,VALID,0,VALID,20.8717,VALID,92,VALID,0.717949,
2000-09-13, 00:14:01,VALID,917.598,VALID,0,VALID,96.5873,VALID,0,VALID,20.8553,VALID,98,VALID,1.00412,
2000-09-13, 00:15:01,VALID,917.591,VALID,0,VALID,96.5974,VALID,-0.0169808,VALID,20.8688,VALID,97,VALID,1.04194,
2000-09-13, 00:16:01,VALID,917.597,VALID,0,VALID,96.5936,VALID,0,VALID,20.8556,VALID,90,VALID,0.917318,
2000-09-13, 00:17:01,VALID,917.595,VALID,0,VALID,96.6229,VALID,-0.0169808,VALID,20.826,VALID,88,VALID,0.779948,
2000-09-13, 00:18:01,VALID,917.607,VALID,0,VALID,96.6559,VALID,0,VALID,20.8004,VALID,72,VALID,0.803686,
2000-09-13, 00:19:01,VALID,917.611,VALID,0,VALID,96.7144,VALID,-0.0169808,VALID,20.7713,VALID,75,VALID,0.944866,
2000-09-13, 00:20:01,VALID,917.605,VALID,0,VALID,96.7513,VALID,-0.0169808,VALID,20.7387,VALID,81,VALID,0.91723,
2000-09-13, 00:21:01,VALID,917.604,VALID,0,VALID,96.8034,VALID,-0.0169808,VALID,20.7161,VALID,54,VALID,0.851786,
2000-09-13, 00:22:01,VALID,917.577,VALID,0,VALID,96.9153,VALID,0,VALID,20.6938,VALID,89,VALID,0.90191,
2000-09-13, 00:23:00,VALID,917.559,VALID,0,VALID,97.0603,VALID,-0.0169808,VALID,20.7037,VALID,102,VALID,0.899239,
2000-09-13, 00:24:00,VALID,917.546,VALID,0,VALID,97.0552,VALID,0,VALID,20.7032,VALID,85,VALID,0.959152,
2000-09-13, 00:25:00,VALID,917.527,VALID,0,VALID,97.0374,VALID,0.0169808,VALID,20.6973,VALID,97,VALID,0.690034,
2000-09-13, 00:26:00,VALID,917.532,VALID,0,VALID,97.0921,VALID,-0.0169808,VALID,20.6938,VALID,96,VALID,1.00915,
2000-09-13, 00:27:00,VALID,917.51,VALID,0,VALID,97.0412,VALID,0,VALID,20.7008,VALID,85,VALID,1.10373,
2000-09-13, 00:28:00,VALID,917.5,VALID,0,VALID,96.9802,VALID,0,VALID,20.6714,VALID,93,VALID,0.957899,
2000-09-13, 00:29:00,VALID,917.489,VALID,0,VALID,97.0196,VALID,0.0169808,VALID,20.6607,VALID,96,VALID,1.06662,
2000-09-13, 00:30:00,VALID,917.48,VALID,0,VALID,97.0603,VALID,0,VALID,20.6644,VALID,89,VALID,1.0111,
2000-09-13, 00:31:00,VALID,917.457,VALID,0,VALID,97.0565,VALID,0.0339617,VALID,20.6644,VALID,91,VALID,1.21289,
2000-09-13, 00:32:00,VALID,917.457,VALID,0,VALID,97.0603,VALID,0.0339617,VALID,20.6483,VALID,92,VALID,1.20855,
2000-09-13, 00:33:00,VALID,917.456,VALID,0,VALID,97.0972,VALID,0.0339617,VALID,20.6453,VALID,88,VALID,1.60437,
2000-09-13, 00:34:00,VALID,917.452,VALID,0,VALID,97.1239,VALID,0.0509425,VALID,20.6326,VALID,81,VALID,1.14665,
2000-09-13, 00:35:00,VALID,917.453,VALID,0,VALID,97.176,VALID,0.0339617,VALID,20.6095,VALID,90,VALID,1.00718,
2000-09-13, 00:36:00,VALID,917.465,VALID,0,VALID,97.2002,VALID,0.0169808,VALID,20.5939,VALID,89,VALID,1.4067,
2000-09-13, 00:37:00,VALID,917.469,VALID,0,VALID,97.1989,VALID,0.0169808,VALID,20.5648,VALID,69,VALID,0.963976,
2000-09-13, 00:38:00,VALID,917.496,VALID,0,VALID,97.2994,VALID,0.0169808,VALID,20.5292,VALID,52,VALID,0.414063,
2000-09-13, 00:39:00,VALID,917.501,VALID,0,VALID,97.3947,VALID,0.0339617,VALID,20.5131,VALID,2,VALID,0.181027,
2000-09-13, 00:40:00,VALID,917.528,VALID,0,VALID,97.5003,VALID,0,VALID,20.4999,VALID,60,VALID,0.184755,
2000-09-13, 00:41:00,VALID,917.533,VALID,0,VALID,97.5817,VALID,0.0339617,VALID,20.4902,VALID,36,VALID,0.383929,
2000-09-13, 00:42:00,VALID,917.547,VALID,0,VALID,97.6669,VALID,0,VALID,20.4934,VALID,106,VALID,0.339844,
2000-09-13, 00:43:00,VALID,917.555,VALID,0,VALID,97.7406,VALID,0,VALID,20.5096,VALID,71,VALID,0.213976,
2000-09-13, 00:44:00,VALID,917.566,VALID,0,VALID,97.6898,VALID,-0.0339617,VALID,20.4977,VALID,62,VALID,0.773872,
2000-09-13, 00:45:00,VALID,917.56,VALID,0,VALID,97.6936,VALID,-0.0849042,VALID,20.4953,VALID,97,VALID,0.377673,
2000-09-13, 00:46:00,VALID,917.574,VALID,0,VALID,97.7012,VALID,-0.101885,VALID,20.4853,VALID,102,VALID,0.463325,
2000-09-13, 00:47:00,VALID,917.572,VALID,0,VALID,97.705,VALID,-0.0849042,VALID,20.4925,VALID,104,VALID,0.546007,
2000-09-13, 00:48:00,VALID,917.561,VALID,0,VALID,97.7292,VALID,-0.101885,VALID,20.4885,VALID,101,VALID,0.525841,
2000-09-13, 00:49:00,VALID,917.573,VALID,0,VALID,97.705,VALID,-0.101885,VALID,20.4853,VALID,92,VALID,0.408705,
2000-09-13, 00:50:00,VALID,917.577,VALID,0,VALID,97.7037,VALID,-0.0849042,VALID,20.492,VALID,94,VALID,0.165752,
2000-09-13, 00:51:00,VALID,917.587,VALID,0,VALID,97.6554,VALID,-0.101885,VALID,20.489,VALID,97,VALID,0,
2000-09-13, 00:52:00,VALID,917.584,VALID,0,VALID,97.6185,VALID,-0.101885,VALID,20.489,VALID,97,VALID,0,
2000-09-13, 00:53:00,VALID,917.569,VALID,0,VALID,97.6084,VALID,-0.0679233,VALID,20.4818,VALID,97,VALID,0,
2000-09-13, 00:54:00,VALID,917.549,VALID,0,VALID,97.5626,VALID,-0.0849042,VALID,20.4888,VALID,97,VALID,0,
2000-09-13, 00:55:00,VALID,917.532,VALID,0,VALID,97.5422,VALID,-0.101885,VALID,20.4987,VALID,97,VALID,0,
2000-09-13, 00:56:00,VALID,917.506,VALID,0,VALID,97.5066,VALID,-0.0509425,VALID,20.5082,VALID,108,VALID,0,
2000-09-13, 00:57:00,VALID,917.479,VALID,0,VALID,97.396,VALID,-0.0849042,VALID,20.5157,VALID,117,VALID,0,
2000-09-13, 00:58:00,VALID,917.449,VALID,0,VALID,97.2472,VALID,-0.0849042,VALID,20.4893,VALID,149,VALID,0,
2000-09-13, 00:59:00,VALID,917.435,VALID,0,VALID,97.1341,VALID,-0.0679233,VALID,20.4791,VALID,232,VALID,0,
2000-09-13, 01:00:00,VALID,917.424,VALID,0,VALID,97.0412,VALID,-0.101885,VALID,20.4734,VALID,215,VALID,0,
2000-09-13, 01:01:00,VALID,917.408,VALID,0,VALID,97.0387,VALID,-0.101885,VALID,20.4597,VALID,200,VALID,0,
2000-09-13, 01:02:00,VALID,917.39,VALID,0,VALID,96.9726,VALID,-0.101885,VALID,20.4468,VALID,166,VALID,0,
2000-09-13, 01:03:00,VALID,917.386,VALID,0,VALID,96.9128,VALID,-0.101885,VALID,20.4339,VALID,166,VALID,0,
2000-09-13, 01:04:00,VALID,917.383,VALID,0,VALID,96.8301,VALID,-0.101885,VALID,20.4277,VALID,166,VALID,0,
2000-09-13, 01:05:00,VALID,917.372,VALID,0,VALID,96.7424,VALID,-0.0849042,VALID,20.3951,VALID,163,VALID,0,
2000-09-13, 01:06:00,VALID,917.365,VALID,0,VALID,96.6534,VALID,-0.0679233,VALID,20.3919,VALID,162,VALID,0,
2000-09-13, 01:07:00,VALID,917.355,VALID,0,VALID,96.5326,VALID,-0.0679233,VALID,20.3829,VALID,213,VALID,0,
2000-09-13, 01:08:00,VALID,917.346,VALID,0,VALID,96.4359,VALID,-0.0849042,VALID,20.3665,VALID,252,VALID,0,
2000-09-13, 01:09:00,VALID,917.324,VALID,0,VALID,96.3902,VALID,-0.0849042,VALID,20.3504,VALID,252,VALID,0,
2000-09-13, 01:10:00,VALID,917.317,VALID,0,VALID,96.2795,VALID,-0.0849042,VALID,20.3213,VALID,252,VALID,0,
2000-09-13, 01:11:00,VALID,917.299,VALID,0,VALID,96.2096,VALID,-0.101885,VALID,20.3027,VALID,252,VALID,0,
2000-09-13, 01:12:00,VALID,917.294,VALID,0,VALID,96.1867,VALID,-0.101885,VALID,20.2795,VALID,247,VALID,0,
2000-09-13, 01:13:00,VALID,917.281,VALID,0,VALID,95.9298,VALID,-0.0849042,VALID,20.2176,VALID,230,VALID,0,
2000-09-13, 01:14:00,VALID,917.277,VALID,0,VALID,96.0087,VALID,-0.0339617,VALID,20.1721,VALID,202,VALID,0,
2000-09-13, 01:15:00,VALID,917.275,VALID,0,VALID,96.2198,VALID,0.0339617,VALID,20.155,VALID,191,VALID,0,
2000-09-13, 01:16:00,VALID,917.269,VALID,0,VALID,96.3406,VALID,0,VALID,20.1485,VALID,192,VALID,0,
2000-09-13, 01:17:00,VALID,917.269,VALID,0,VALID,96.4296,VALID,0.0169808,VALID,20.1289,VALID,228,VALID,0,
2000-09-13, 01:18:00,VALID,917.265,VALID,0,VALID,96.3851,VALID,0.0339617,VALID,20.1095,VALID,237,VALID,0,
2000-09-13, 01:19:00,VALID,917.254,VALID,0,VALID,96.3228,VALID,0,VALID,20.0772,VALID,237,VALID,0,
2000-09-13, 01:20:00,VALID,917.229,VALID,0,VALID,96.3698,VALID,0.0169808,VALID,20.0586,VALID,237,VALID,0,
2000-09-13, 01:21:00,VALID,917.21,VALID,0,VALID,96.4932,VALID,0.0169808,VALID,20.0292,VALID,233,VALID,0,
2000-09-13, 01:22:00,VALID,917.188,VALID,0,VALID,96.7755,VALID,0,VALID,20.0225,VALID,209,VALID,0,
2000-09-13, 01:23:00,VALID,917.179,VALID,0,VALID,96.9319,VALID,0.0169808,VALID,20.0297,VALID,206,VALID,0,
2000-09-13, 01:24:00,VALID,917.173,VALID,0,VALID,97.1442,VALID,0,VALID,20.0265,VALID,190,VALID,0,
2000-09-13, 01:25:00,VALID,917.166,VALID,0,VALID,97.3286,VALID,0,VALID,20.03,VALID,173,VALID,0.190034,
2000-09-13, 01:26:00,VALID,917.148,VALID,0,VALID,97.3884,VALID,-0.0169808,VALID,19.984,VALID,163,VALID,0.685045,
2000-09-13, 01:27:00,VALID,917.144,VALID,0,VALID,97.5155,VALID,0.0169808,VALID,19.9684,VALID,163,VALID,0.586589,
2000-09-13, 01:28:00,VALID,917.125,VALID,0,VALID,97.5346,VALID,0,VALID,19.9231,VALID,158,VALID,0.944661,
2000-09-13, 01:29:00,VALID,917.099,VALID,0,VALID,97.6898,VALID,0,VALID,19.9067,VALID,174,VALID,0.757595,
2000-09-13, 01:30:00,VALID,917.084,VALID,0,VALID,97.7686,VALID,0.0169808,VALID,19.8906,VALID,191,VALID,0.772615,
2000-09-13, 01:31:00,VALID,917.064,VALID,0,VALID,97.9492,VALID,0.0169808,VALID,19.865,VALID,192,VALID,0.902995,
2000-09-13, 01:32:00,VALID,917.057,VALID,0,VALID,98.07,VALID,0,VALID,19.8518,VALID,199,VALID,0.723524,
2000-09-13, 01:33:00,VALID,917.034,VALID,0,VALID,98.1157,VALID,0,VALID,19.8294,VALID,191,VALID,0.782051,
2000-09-13, 01:34:00,VALID,917.012,VALID,0,VALID,98.131,VALID,0.0169808,VALID,19.784,VALID,175,VALID,0.909821,
2000-09-13, 01:35:00,VALID,916.988,VALID,0,VALID,98.206,VALID,0,VALID,19.7683,VALID,174,VALID,0.958615,
2000-09-13, 01:36:00,VALID,916.959,VALID,0,VALID,98.2963,VALID,0.0169808,VALID,19.7387,VALID,175,VALID,0.870313,
2000-09-13, 01:37:00,VALID,916.917,VALID,0,VALID,98.3535,VALID,0,VALID,19.7194,VALID,162,VALID,0.745009,
2000-09-13, 01:38:00,VALID,916.895,VALID,0,VALID,98.4705,VALID,0.0169808,VALID,19.6962,VALID,160,VALID,0.607772,
2000-09-13, 01:39:00,VALID,916.868,VALID,0,VALID,98.5277,VALID,0.0169808,VALID,19.697,VALID,152,VALID,0.566518,
2000-09-13, 01:40:00,VALID,916.841,VALID,0,VALID,98.5824,VALID,0,VALID,19.7037,VALID,160,VALID,0.72424,
2000-09-13, 01:41:00,VALID,916.822,VALID,0,VALID,98.6689,VALID,0,VALID,19.6967,VALID,165,VALID,0.906696,
2000-09-13, 01:42:00,VALID,916.818,VALID,0,VALID,98.7452,VALID,0,VALID,19.7131,VALID,170,VALID,1.01671,
2000-09-13, 01:43:00,VALID,916.799,VALID,0,VALID,98.7846,VALID,0,VALID,19.7064,VALID,176,VALID,0.851563,
2000-09-13, 01:44:00,VALID,916.797,VALID,0,VALID,98.7973,VALID,0.0169808,VALID,19.6972,VALID,179,VALID,0.741753,
2000-09-13, 01:45:00,VALID,916.786,VALID,0,VALID,98.8647,VALID,0,VALID,19.694,VALID,188,VALID,0.607525,
2000-09-13, 01:46:00,VALID,916.778,VALID,0,VALID,98.899,VALID,0,VALID,19.6938,VALID,196,VALID,0.489583,
2000-09-13, 01:47:00,VALID,916.762,VALID,0,VALID,98.9143,VALID,0.0169808,VALID,19.6972,VALID,190,VALID,0.652778,
2000-09-13, 01:48:00,VALID,916.763,VALID,0,VALID,98.9461,VALID,0,VALID,19.6875,VALID,193,VALID,0.595553,
2000-09-13, 01:49:00,VALID,916.755,VALID,0,VALID,99.0224,VALID,0,VALID,19.7166,VALID,192,VALID,0.664063,
2000-09-13, 01:50:00,VALID,916.752,VALID,0,VALID,99.0427,VALID,0,VALID,19.7233,VALID,193,VALID,0.610008,
2000-09-13, 01:51:00,VALID,916.753,VALID,0,VALID,99.0287,VALID,0,VALID,19.7136,VALID,191,VALID,0.626786,
2000-09-13, 01:52:00,VALID,916.739,VALID,0,VALID,99.0593,VALID,0,VALID,19.7077,VALID,189,VALID,0.678385,
2000-09-13, 01:53:00,VALID,916.718,VALID,0,VALID,99.0809,VALID,0,VALID,19.7067,VALID,195,VALID,0.603165,
2000-09-13, 01:54:00,VALID,916.695,VALID,0,VALID,99.1063,VALID,0,VALID,19.7131,VALID,190,VALID,0.568527,
2000-09-13, 01:55:00,VALID,916.668,VALID,0,VALID,99.1038,VALID,0.0169808,VALID,19.7129,VALID,199,VALID,0.559755,
2000-09-13, 01:56:00,VALID,916.633,VALID,0,VALID,99.1012,VALID,0,VALID,19.7102,VALID,211,VALID,0.531027,
2000-09-13, 01:57:00,VALID,916.618,VALID,0,VALID,99.1343,VALID,0.0509425,VALID,19.7034,VALID,209,VALID,0.654948,
2000-09-13, 01:58:00,VALID,916.583,VALID,0,VALID,99.1585,VALID,0.0169808,VALID,19.7199,VALID,212,VALID,0.851563,
2000-09-13, 01:59:00,VALID,916.573,VALID,0,VALID,99.1877,VALID,0.0169808,VALID,19.7427,VALID,211,VALID,0.574219,
2000-09-13, 02:00:00,VALID,916.567,VALID,0,VALID,99.2004,VALID,0.0169808,VALID,19.739,VALID,212,VALID,0.0160362,
2000-09-13, 02:01:00,VALID,916.555,VALID,0,VALID,99.2131,VALID,0,VALID,19.7522,VALID,209,VALID,0,
2000-09-13, 02:02:00,VALID,916.55,VALID,0,VALID,99.2182,VALID,-0.0169808,VALID,19.7584,VALID,209,VALID,0.00716146,
2000-09-13, 02:03:00,VALID,916.554,VALID,0,VALID,99.2131,VALID,0.0169808,VALID,19.7686,VALID,204,VALID,0.426883,
2000-09-13, 02:04:00,VALID,916.548,VALID,0,VALID,99.2284,VALID,0,VALID,19.7785,VALID,205,VALID,0.0662946,
2000-09-13, 02:05:00,VALID,916.556,VALID,0,VALID,99.2373,VALID,0.0169808,VALID,19.778,VALID,212,VALID,0.206081,
2000-09-13, 02:06:00,VALID,916.555,VALID,0,VALID,99.25,VALID,0,VALID,19.7877,VALID,214,VALID,0,
2000-09-13, 02:07:00,VALID,916.569,VALID,0,VALID,99.2653,VALID,0.0169808,VALID,19.8036,VALID,214,VALID,0,
2000-09-13, 02:08:00,VALID,916.579,VALID,0,VALID,99.2704,VALID,0,VALID,19.8232,VALID,214,VALID,0,
2000-09-13, 02:09:00,VALID,916.591,VALID,0,VALID,99.2729,VALID,0.0339617,VALID,19.8262,VALID,214,VALID,0,
2000-09-13, 02:10:00,VALID,916.592,VALID,0,VALID,99.2869,VALID,0.0509425,VALID,19.8297,VALID,261,VALID,0,
2000-09-13, 02:11:00,VALID,916.601,VALID,0,VALID,99.2831,VALID,0,VALID,19.8361,VALID,322,VALID,0.103125,
2000-09-13, 02:12:00,VALID,916.606,VALID,0,VALID,99.2716,VALID,0,VALID,19.8195,VALID,346,VALID,0.120443,
2000-09-13, 02:13:00,VALID,916.616,VALID,0,VALID,99.2767,VALID,0.0339617,VALID,19.8461,VALID,333,VALID,0,
2000-09-13, 02:14:00,VALID,916.629,VALID,0,VALID,99.2742,VALID,0.0169808,VALID,19.8458,VALID,332,VALID,0,
2000-09-13, 02:15:00,VALID,916.648,VALID,0,VALID,99.2398,VALID,-0.0509425,VALID,19.8277,VALID,349,VALID,0.193051,
2000-09-13, 02:16:00,VALID,916.682,VALID,0,VALID,99.2309,VALID,-0.0849042,VALID,19.8118,VALID,350,VALID,0.182292,
2000-09-13, 02:17:00,VALID,916.688,VALID,0,VALID,99.2271,VALID,-0.101885,VALID,19.8088,VALID,350,VALID,0.00347222,
2000-09-13, 02:18:00,VALID,916.709,VALID,0,VALID,99.2347,VALID,-0.0849042,VALID,19.8349,VALID,353,VALID,0.0436699,
2000-09-13, 02:19:00,VALID,916.716,VALID,0,VALID,99.2322,VALID,-0.101885,VALID,19.815,VALID,357,VALID,0,
2000-09-13, 02:20:00,VALID,916.718,VALID,0,VALID,99.2665,VALID,-0.0849042,VALID,19.8307,VALID,357,VALID,0,
2000-09-13, 02:21:00,VALID,916.724,VALID,0,VALID,99.264,VALID,-0.0679233,VALID,19.8506,VALID,357,VALID,0,
2000-09-13, 02:22:00,VALID,916.736,VALID,0,VALID,99.2398,VALID,-0.0849042,VALID,19.8667,VALID,357,VALID,0,
2000-09-13, 02:23:00,VALID,916.75,VALID,0,VALID,99.2297,VALID,-0.0509425,VALID,19.8734,VALID,357,VALID,0,
2000-09-13, 02:24:00,VALID,916.746,VALID,0,VALID,99.2055,VALID,-0.0679233,VALID,19.8471,VALID,17,VALID,0,
2000-09-13, 02:25:00,VALID,916.754,VALID,0,VALID,99.1724,VALID,-0.0339617,VALID,19.8339,VALID,151,VALID,0,
2000-09-13, 02:26:00,VALID,916.752,VALID,0,VALID,99.1712,VALID,-0.0339617,VALID,19.8339,VALID,225,VALID,0,
2000-09-13, 02:27:00,VALID,916.753,VALID,0,VALID,99.1241,VALID,-0.0169808,VALID,19.8312,VALID,176,VALID,0,
2000-09-13, 02:28:00,VALID,916.749,VALID,0,VALID,99.1,VALID,-0.0679233,VALID,19.8081,VALID,157,VALID,0,
2000-09-13, 02:29:00,VALID,916.753,VALID,0,VALID,99.0796,VALID,-0.0509425,VALID,19.8016,VALID,215,VALID,0.41276,
2000-09-13, 02:30:00,VALID,916.743,VALID,0,VALID,99.0186,VALID,-0.0679233,VALID,19.7852,VALID,211,VALID,0.682566,
2000-09-13, 02:31:00,VALID,916.724,VALID,0,VALID,99.0008,VALID,-0.0679233,VALID,19.7792,VALID,213,VALID,0.559896,
2000-09-13, 02:32:00,VALID,916.71,VALID,0,VALID,99.0046,VALID,-0.0509425,VALID,19.7725,VALID,190,VALID,0.139323,
2000-09-13, 02:33:00,VALID,916.69,VALID,0,VALID,98.9982,VALID,-0.0509425,VALID,19.7661,VALID,226,VALID,0.451322,
2000-09-13, 02:34:00,VALID,916.674,VALID,0,VALID,98.9715,VALID,-0.0509425,VALID,19.7763,VALID,212,VALID,0.566964,
2000-09-13, 02:35:00,VALID,916.663,VALID,0,VALID,98.9703,VALID,-0.0679233,VALID,19.7795,VALID,207,VALID,0.592272,
2000-09-13, 02:36:00,VALID,916.669,VALID,0,VALID,98.941,VALID,-0.0679233,VALID,19.786,VALID,208,VALID,0.718527,
2000-09-13, 02:37:00,VALID,916.667,VALID,0,VALID,98.9207,VALID,-0.0679233,VALID,19.7959,VALID,213,VALID,0.444661,
2000-09-13, 02:38:00,VALID,916.692,VALID,0,VALID,98.9168,VALID,-0.0849042,VALID,19.7924,VALID,206,VALID,0.311098,
2000-09-13, 02:39:00,VALID,916.696,VALID,0,VALID,98.8863,VALID,-0.101885,VALID,19.8083,VALID,203,VALID,0.45067,
2000-09-13, 02:40:00,VALID,916.695,VALID,0,VALID,98.7897,VALID,-0.0849042,VALID,19.7959,VALID,211,VALID,0.513302,
2000-09-13, 02:41:00,VALID,916.7,VALID,0,VALID,98.7388,VALID,-0.101885,VALID,19.7991,VALID,206,VALID,0.779241,
2000-09-13, 02:42:00,VALID,916.691,VALID,0,VALID,98.6562,VALID,-0.0849042,VALID,19.7964,VALID,190,VALID,0.897352,
2000-09-13, 02:43:00,VALID,916.664,VALID,0,VALID,98.5773,VALID,-0.0679233,VALID,19.786,VALID,207,VALID,0.664931,
2000-09-13, 02:44:00,VALID,916.643,VALID,0,VALID,98.4909,VALID,-0.0169808,VALID,19.7922,VALID,210,VALID,0.375217,
2000-09-13, 02:45:00,VALID,916.614,VALID,0,VALID,98.4235,VALID,0.0169808,VALID,19.7842,VALID,207,VALID,0.00699013,
2000-09-13, 02:46:00,VALID,916.6,VALID,0,VALID,98.3421,VALID,0.0679233,VALID,19.7937,VALID,182,VALID,0.527344,
2000-09-13, 02:47:00,VALID,916.579,VALID,0,VALID,98.1806,VALID,0.0169808,VALID,19.7678,VALID,172,VALID,0.699219,
2000-09-13, 02:48:00,VALID,916.568,VALID,0,VALID,97.9987,VALID,0.0849042,VALID,19.7584,VALID,196,VALID,0.692508,
2000-09-13, 02:49:00,VALID,916.574,VALID,0,VALID,97.8703,VALID,0.0679233,VALID,19.7457,VALID,212,VALID,0.687723,
2000-09-13, 02:50:00,VALID,916.588,VALID,0,VALID,97.7877,VALID,0.0509425,VALID,19.7293,VALID,226,VALID,0.807855,
2000-09-13, 02:51:00,VALID,916.588,VALID,0,VALID,97.6783,VALID,0.0849042,VALID,19.7164,VALID,227,VALID,0.827232,
2000-09-13, 02:52:00,VALID,916.578,VALID,0,VALID,97.5562,VALID,0.0679233,VALID,19.697,VALID,226,VALID,0.835069,
2000-09-13, 02:53:00,VALID,916.584,VALID,0,VALID,97.4481,VALID,0.101885,VALID,19.6833,VALID,221,VALID,0.675881,
2000-09-13, 02:54:00,VALID,916.58,VALID,0,VALID,97.4075,VALID,0.0849042,VALID,19.6806,VALID,226,VALID,0.591071,
2000-09-13, 02:55:00,VALID,916.567,VALID,0,VALID,97.3808,VALID,0.0849042,VALID,19.6838,VALID,224,VALID,0.678632,
2000-09-13, 02:56:00,VALID,916.557,VALID,0,VALID,97.3235,VALID,0.0509425,VALID,19.6711,VALID,212,VALID,0.646205,
2000-09-13, 02:57:00,VALID,916.548,VALID,0,VALID,97.2561,VALID,0.0509425,VALID,19.6547,VALID,201,VALID,0.822483,
2000-09-13, 02:58:00,VALID,916.522,VALID,0,VALID,97.2472,VALID,0.0849042,VALID,19.6383,VALID,194,VALID,1.01476,
2000-09-13, 02:59:00,VALID,916.506,VALID,0,VALID,97.2231,VALID,0.0509425,VALID,19.6165,VALID,185,VALID,0.815538,
2000-09-13, 03:00:00,VALID,916.496,VALID,0,VALID,97.2472,VALID,-0.0509425,VALID,19.6145,VALID,177,VALID,0.839021,
2000-09-13, 03:01:00,VALID,916.475,VALID,0,VALID,97.1748,VALID,-0.0679233,VALID,19.5854,VALID,152,VALID,0.693793,
2000-09-13, 03:02:00,VALID,916.459,VALID,0,VALID,97.1709,VALID,-0.0509425,VALID,19.5857,VALID,149,VALID,0.523438,
2000-09-13, 03:03:00,VALID,916.454,VALID,0,VALID,97.0539,VALID,-0.0679233,VALID,19.5566,VALID,152,VALID,0.635016,
2000-09-13, 03:04:00,VALID,916.452,VALID,0,VALID,96.9904,VALID,-0.0679233,VALID,19.5213,VALID,161,VALID,0.613616,
2000-09-13, 03:05:00,VALID,916.462,VALID,0,VALID,96.9777,VALID,-0.0339617,VALID,19.482,VALID,177,VALID,0.123944,
2000-09-13, 03:06:00,VALID,916.477,VALID,0,VALID,97.0476,VALID,-0.0339617,VALID,19.4433,VALID,177,VALID,0,
2000-09-13, 03:07:00,VALID,916.49,VALID,0,VALID,97.1748,VALID,0.0169808,VALID,19.4065,VALID,192,VALID,0,
2000-09-13, 03:08:00,VALID,916.492,VALID,0,VALID,97.2892,VALID,0.0169808,VALID,19.3876,VALID,207,VALID,0,
2000-09-13, 03:09:00,VALID,916.507,VALID,0,VALID,97.3909,VALID,0.0339617,VALID,19.3648,VALID,211,VALID,0,
2000-09-13, 03:10:00,VALID,916.508,VALID,0,VALID,97.4876,VALID,0.0679233,VALID,19.3615,VALID,223,VALID,0,
2000-09-13, 03:11:00,VALID,916.517,VALID,0,VALID,97.6618,VALID,0.0339617,VALID,19.3613,VALID,217,VALID,0.514732,
2000-09-13, 03:12:00,VALID,916.495,VALID,0,VALID,97.836,VALID,0.0339617,VALID,19.371,VALID,214,VALID,0.721571,
2000-09-13, 03:13:00,VALID,916.476,VALID,0,VALID,97.9466,VALID,0.0509425,VALID,19.3846,VALID,212,VALID,0.893663,
2000-09-13, 03:14:00,VALID,916.454,VALID,0,VALID,98.0674,VALID,0.0169808,VALID,19.3846,VALID,217,VALID,0.945313,
2000-09-13, 03:15:00,VALID,916.446,VALID,0,VALID,98.0979,VALID,-0.0849042,VALID,19.3724,VALID,205,VALID,0.644531,
2000-09-13, 03:16:00,VALID,916.42,VALID,0,VALID,98.1526,VALID,-0.0339617,VALID,19.3667,VALID,212,VALID,0.828993,
2000-09-13, 03:17:00,VALID,916.409,VALID,0,VALID,98.2009,VALID,-0.0849042,VALID,19.3436,VALID,199,VALID,0.729384,
2000-09-13, 03:18:00,VALID,916.403,VALID,0,VALID,98.2772,VALID,-0.0339617,VALID,19.3339,VALID,208,VALID,0.820313,
2000-09-13, 03:19:00,VALID,916.394,VALID,0,VALID,98.3217,VALID,-0.0849042,VALID,19.3145,VALID,215,VALID,0.790625,
2000-09-13, 03:20:00,VALID,916.404,VALID,0,VALID,98.4057,VALID,-0.0509425,VALID,19.3118,VALID,191,VALID,0.416807,
2000-09-13, 03:21:00,VALID,916.393,VALID,0,VALID,98.4603,VALID,-0.0679233,VALID,19.2919,VALID,202,VALID,0.882589,
2000-09-13, 03:22:00,VALID,916.402,VALID,0,VALID,98.4845,VALID,-0.0679233,VALID,19.2758,VALID,202,VALID,0.475477,
2000-09-13, 03:23:00,VALID,916.396,VALID,0,VALID,98.5087,VALID,-0.0849042,VALID,19.2467,VALID,193,VALID,0.53726,
2000-09-13, 03:24:00,VALID,916.376,VALID,0,VALID,98.5532,VALID,-0.101885,VALID,19.2211,VALID,210,VALID,0.598884,
2000-09-13, 03:25:00,VALID,916.371,VALID,0,VALID,98.6409,VALID,-0.101885,VALID,19.2251,VALID,213,VALID,0.833404,
2000-09-13, 03:26:00,VALID,916.361,VALID,0,VALID,98.7045,VALID,-0.0849042,VALID,19.2246,VALID,222,VALID,0.607366,
2000-09-13, 03:27:00,VALID,916.329,VALID,0,VALID,98.7592,VALID,-0.0679233,VALID,19.2209,VALID,218,VALID,0.584418,
2000-09-13, 03:28:00,VALID,916.316,VALID,0,VALID,98.7414,VALID,-0.101885,VALID,19.2246,VALID,181,VALID,0,
2000-09-13, 03:29:00,VALID,916.29,VALID,0,VALID,98.6333,VALID,-0.0679233,VALID,19.1563,VALID,160,VALID,0.219401,
2000-09-13, 03:30:00,VALID,916.26,VALID,0,VALID,98.5583,VALID,0,VALID,19.0907,VALID,131,VALID,0.642681,
2000-09-13, 03:31:00,VALID,916.237,VALID,0,VALID,98.4985,VALID,0.0169808,VALID,19.0425,VALID,131,VALID,0.656467,
2000-09-13, 03:32:00,VALID,916.234,VALID,0,VALID,98.4743,VALID,0.0169808,VALID,19.0005,VALID,135,VALID,0.614149,
2000-09-13, 03:33:00,VALID,916.215,VALID,0,VALID,98.4667,VALID,0.0169808,VALID,18.968,VALID,139,VALID,0.551082,
2000-09-13, 03:34:00,VALID,916.201,VALID,0,VALID,98.4057,VALID,0.0509425,VALID,18.9483,VALID,133,VALID,0.407813,
2000-09-13, 03:35:00,VALID,916.198,VALID,0,VALID,98.2874,VALID,0.0339617,VALID,18.9075,VALID,125,VALID,0.315245,